No particular awareness of the weather is required.    There are no Weather-warnings


Meteo18 Weather Cam more information Meteo18 Weather Cam


Thunder radar more information blitzortung!


Rain radar more information rain snow radar


Visit our other weather sites:

Template documentation
and downloads

And another site



Weather Underground History page Text

Daily Summary for December 13, 2017 Units:  English    Metric   Both
« Previous Day
Next Day »
Daily Weekly Monthly Yearly Custom
  High: Low: Average:
Temperature: TemperatureC °F 0.8 °F 5.3 °F
Dew Point: DewpointC °F -0.5 °F 4.1 °F
Humidity: Humidity % 86 % 92 %
Wind Speed: WindSpeedKMH mph 0.0 mph 14.1 mph
Wind Gust: WindSpeedGustKMH mph - -
Wind:- - SW
Pressure: PressurehPa in 1001.2 in -
Precipitation: 8.9 in    
Historical Graphs
 
 
Tabular Data for December 13, 2017
Time Temperature Dew Point Pressure Wind Wind Speed Wind Gust Humidity Rainfall Rate (Hourly)
TemperatureC °F DewpointC °F PressurehPa in Calm     Humidity % HourlyPrecipMM in
00:02 2.6 °F 0.8 °F 1018.8 in SSW 3.2 mph 3.2 mph 88 % 0.0 in
00:07 2.6 °F 1.0 °F 1018.8 in South 1.6 mph 3.2 mph 89 % 0.0 in
00:12 2.6 °F 1.0 °F 1018.8 in Calm   3.2 mph 89 % 0.0 in
00:17 2.4 °F 0.8 °F 1018.8 in SSW 1.6 mph 3.2 mph 89 % 0.0 in
00:22 2.4 °F 0.8 °F 1018.8 in SSW 1.6 mph 3.2 mph 89 % 0.0 in
00:27 2.3 °F 0.7 °F 1018.8 in SSW 1.6 mph 3.2 mph 89 % 0.0 in
00:32 2.3 °F 0.8 °F 1019.2 in SW 3.2 mph 3.2 mph 90 % 0.0 in
00:42 2.4 °F 0.8 °F 1018.8 in South 3.2 mph 3.2 mph 89 % 0.0 in
00:47 2.4 °F 0.8 °F 1018.8 in SE 3.2 mph 4.8 mph 89 % 0.0 in
00:52 2.4 °F 0.8 °F 1018.8 in Calm   4.8 mph 89 % 0.0 in
00:57 2.4 °F 0.8 °F 1018.8 in Calm   4.8 mph 89 % 0.0 in
01:02 2.3 °F 0.7 °F 1018.8 in South 3.2 mph 4.8 mph 89 % 0.0 in
01:12 2.2 °F 0.6 °F 1018.5 in South 1.6 mph 6.4 mph 89 % 0.0 in
01:17 2.1 °F 0.5 °F 1018.5 in SSW 1.6 mph 6.4 mph 89 % 0.0 in
01:22 1.8 °F 0.2 °F 1018.5 in SSW 1.6 mph 6.4 mph 89 % 0.0 in
01:27 1.7 °F 0.1 °F 1018.5 in SSW 4.8 mph 4.8 mph 89 % 0.0 in
01:47 1.7 °F 0.1 °F 1018.2 in SW 6.4 mph 9.7 mph 89 % 0.0 in
01:52 1.8 °F 0.2 °F 1018.2 in SW 8.0 mph 11.3 mph 89 % 0.0 in
01:57 1.8 °F 0.2 °F 1018.2 in South 6.4 mph 14.5 mph 89 % 0.0 in
02:02 1.8 °F 0.2 °F 1018.5 in SSW 6.4 mph 14.5 mph 89 % 0.0 in
02:07 1.8 °F 0.2 °F 1018.5 in SSW 9.7 mph 14.5 mph 89 % 0.0 in
02:12 1.8 °F 0.2 °F 1018.5 in SSW 4.8 mph 12.9 mph 89 % 0.0 in
02:17 1.7 °F 0.1 °F 1018.5 in South 4.8 mph 12.9 mph 89 % 0.0 in
02:22 1.7 °F 0.1 °F 1018.5 in South 1.6 mph 11.3 mph 89 % 0.0 in
02:27 1.7 °F 0.1 °F 1018.5 in SSW 3.2 mph 8.0 mph 89 % 0.0 in
02:32 1.7 °F 0.1 °F 1018.5 in South 4.8 mph 8.0 mph 89 % 0.0 in
02:37 1.7 °F 0.1 °F 1018.5 in SSW 1.6 mph 8.0 mph 89 % 0.0 in
02:42 1.6 °F 0.0 °F 1018.5 in SSW 4.8 mph 8.0 mph 89 % 0.0 in
02:47 1.6 °F 0.0 °F 1018.2 in South 4.8 mph 8.0 mph 89 % 0.0 in
02:52 1.5 °F -0.1 °F 1018.2 in South 1.6 mph 6.4 mph 89 % 0.0 in
02:57 1.4 °F -0.2 °F 1018.2 in SSW 1.6 mph 6.4 mph 89 % 0.0 in
03:02 1.3 °F -0.3 °F 1018.2 in Calm   6.4 mph 89 % 0.0 in
03:12 1.2 °F -0.1 °F 1018.2 in SSW 6.4 mph 11.3 mph 91 % 0.0 in
03:17 1.2 °F -0.1 °F 1018.2 in SW 6.4 mph 11.3 mph 91 % 0.0 in
03:22 1.2 °F -0.1 °F 1018.2 in SSW 6.4 mph 11.3 mph 91 % 0.0 in
03:32 1.3 °F 0.0 °F 1017.8 in SW 6.4 mph 12.9 mph 91 % 0.0 in
03:37 1.3 °F -0.2 °F 1017.8 in SW 3.2 mph 12.9 mph 90 % 0.0 in
03:42 1.3 °F -0.2 °F 1017.8 in SSW 4.8 mph 11.3 mph 90 % 0.0 in
03:47 1.2 °F -0.3 °F 1017.8 in SW 4.8 mph 11.3 mph 90 % 0.0 in
03:52 1.1 °F -0.2 °F 1017.8 in SSW 9.7 mph 11.3 mph 91 % 0.0 in
04:02 0.8 °F -0.5 °F 1017.8 in SSW 3.2 mph 9.7 mph 91 % 0.0 in
04:17 0.9 °F -0.3 °F 1017.8 in SSW 4.8 mph 9.7 mph 92 % 0.0 in
04:22 0.8 °F -0.4 °F 1017.5 in SSW 6.4 mph 9.7 mph 92 % 0.0 in
04:27 0.8 °F -0.4 °F 1017.5 in SSW 6.4 mph 11.3 mph 92 % 0.0 in
04:32 0.9 °F -0.3 °F 1017.2 in SSW 8.0 mph 11.3 mph 92 % 0.0 in
04:42 1.0 °F -0.2 °F 1016.8 in South 4.8 mph 12.9 mph 92 % 0.0 in
04:47 1.1 °F -0.1 °F 1016.8 in South 4.8 mph 12.9 mph 92 % 0.0 in
04:52 1.1 °F -0.1 °F 1016.8 in SSW 6.4 mph 12.9 mph 92 % 0.0 in
04:57 1.1 °F -0.1 °F 1016.8 in SSW 1.6 mph 9.7 mph 92 % 0.0 in
05:02 1.1 °F -0.1 °F 1016.8 in South 6.4 mph 8.0 mph 92 % 0.0 in
05:12 1.1 °F -0.1 °F 1016.5 in SSW 6.4 mph 8.0 mph 92 % 0.0 in
05:17 1.2 °F 0.0 °F 1016.5 in SSW 11.3 mph 11.3 mph 92 % 0.0 in
05:27 1.3 °F 0.1 °F 1016.5 in SW 11.3 mph 14.5 mph 92 % 0.0 in
05:32 1.3 °F 0.1 °F 1016.5 in SW 11.3 mph 14.5 mph 92 % 0.0 in
05:42 1.4 °F 0.2 °F 1016.5 in SSW 6.4 mph 16.1 mph 92 % 0.0 in
05:52 1.5 °F 0.3 °F 1016.5 in SW 16.1 mph 17.7 mph 92 % 0.0 in
05:57 1.5 °F 0.2 °F 1016.5 in SW 11.3 mph 17.7 mph 91 % 0.0 in
06:02 1.4 °F 0.1 °F 1016.1 in SW 12.9 mph 17.7 mph 91 % 0.0 in
06:12 1.4 °F 0.2 °F 1016.1 in WSW 9.7 mph 17.7 mph 92 % 0.0 in
06:17 1.3 °F 0.1 °F 1016.1 in SW 12.9 mph 16.1 mph 92 % 0.0 in
06:22 1.4 °F 0.2 °F 1016.1 in SSW 9.7 mph 16.1 mph 92 % 0.0 in
06:32 1.3 °F 0.1 °F 1016.1 in SW 11.3 mph 12.9 mph 92 % 0.0 in
06:37 1.3 °F 0.1 °F 1016.1 in SSW 6.4 mph 12.9 mph 92 % 0.0 in
06:42 1.3 °F 0.1 °F 1016.1 in SSW 6.4 mph 14.5 mph 92 % 0.0 in
06:47 1.3 °F 0.3 °F 1015.8 in SSW 6.4 mph 14.5 mph 93 % 0.0 in
06:52 1.3 °F 0.3 °F 1015.8 in SSW 4.8 mph 9.7 mph 93 % 0.0 in
06:57 1.4 °F 0.4 °F 1015.8 in SSW 3.2 mph 9.7 mph 93 % 0.0 in
07:02 1.4 °F 0.4 °F 1015.5 in SW 8.0 mph 9.7 mph 93 % 0.0 in
07:07 1.5 °F 0.5 °F 1015.5 in SSW 6.4 mph 9.7 mph 93 % 0.0 in
07:12 1.5 °F 0.5 °F 1015.5 in SSW 6.4 mph 9.7 mph 93 % 0.0 in
07:17 1.6 °F 0.6 °F 1015.5 in SSW 3.2 mph 9.7 mph 93 % 0.0 in
07:22 1.8 °F 0.8 °F 1015.1 in South 8.0 mph 9.7 mph 93 % 0.0 in
07:27 1.9 °F 0.9 °F 1015.1 in South 3.2 mph 11.3 mph 93 % 0.0 in
07:32 2.1 °F 1.1 °F 1015.1 in SSW 9.7 mph 11.3 mph 93 % 0.0 in
07:37 2.2 °F 1.0 °F 1015.1 in SSW 9.7 mph 11.3 mph 92 % 0.0 in
07:42 2.4 °F 1.2 °F 1014.8 in SSW 6.4 mph 11.3 mph 92 % 0.0 in
07:47 2.5 °F 1.3 °F 1014.8 in SSW 9.7 mph 16.1 mph 92 % 0.0 in
07:52 2.6 °F 1.3 °F 1014.4 in SSW 6.4 mph 16.1 mph 91 % 0.0 in
07:57 2.8 °F 1.5 °F 1014.4 in SSW 6.4 mph 19.3 mph 91 % 0.0 in
08:02 2.8 °F 1.5 °F 1014.4 in SSW 12.9 mph 19.3 mph 91 % 0.0 in
08:07 2.9 °F 1.4 °F 1014.4 in SW 6.4 mph 19.3 mph 90 % 0.0 in
08:12 3.0 °F 1.5 °F 1014.4 in SSW 14.5 mph 19.3 mph 90 % 0.0 in
08:17 3.1 °F 1.6 °F 1014.1 in SSW 9.7 mph 17.7 mph 90 % 0.0 in
08:27 3.3 °F 1.8 °F 1014.4 in SSW 9.7 mph 17.7 mph 90 % 0.0 in
08:32 3.3 °F 1.7 °F 1014.4 in SW 9.7 mph 22.5 mph 89 % 0.0 in
08:37 3.4 °F 1.9 °F 1014.4 in South 14.5 mph 22.5 mph 90 % 0.0 in
08:42 3.5 °F 2.0 °F 1014.1 in SSW 6.4 mph 22.5 mph 90 % 0.0 in
08:52 3.7 °F 2.1 °F 1013.8 in SW 19.3 mph 22.5 mph 89 % 0.0 in
08:57 3.7 °F 2.1 °F 1013.8 in South 11.3 mph 22.5 mph 89 % 0.0 in
09:02 3.8 °F 2.3 °F 1013.8 in SW 16.1 mph 20.9 mph 90 % 0.0 in
09:07 3.8 °F 2.3 °F 1013.8 in SSW 9.7 mph 20.9 mph 90 % 0.0 in
09:12 3.8 °F 2.3 °F 1013.4 in SSW 12.9 mph 20.9 mph 90 % 0.0 in
09:17 3.8 °F 2.5 °F 1013.4 in SSW 11.3 mph 25.7 mph 91 % 0.0 in
09:22 3.8 °F 2.5 °F 1013.4 in SSW 12.9 mph 25.7 mph 91 % 0.3 in
09:32 3.9 °F 2.6 °F 1013.1 in SSW 11.3 mph 25.7 mph 91 % 0.3 in
09:37 3.9 °F 2.6 °F 1013.1 in SW 24.1 mph 29.0 mph 91 % 0.5 in
09:42 4.0 °F 2.8 °F 1013.1 in SSW 16.1 mph 29.0 mph 92 % 0.5 in
09:47 4.0 °F 2.8 °F 1012.8 in SSW 17.7 mph 29.0 mph 92 % 0.5 in
09:52 4.1 °F 2.9 °F 1012.8 in SSE 16.1 mph 27.4 mph 92 % 0.8 in
09:57 4.1 °F 2.9 °F 1012.8 in SW 17.7 mph 27.4 mph 92 % 1.0 in
10:02 4.1 °F 2.9 °F 1012.8 in SSW 11.3 mph 27.4 mph 92 % 1.0 in
10:12 4.1 °F 2.9 °F 1012.8 in SSE 12.9 mph 27.4 mph 92 % 1.3 in
10:17 4.2 °F 3.2 °F 1012.8 in SSW 12.9 mph 25.7 mph 93 % 1.3 in
10:22 4.2 °F 3.0 °F 1012.8 in SW 12.9 mph 20.9 mph 92 % 1.3 in
10:27 4.2 °F 3.2 °F 1012.4 in South 9.7 mph 24.1 mph 93 % 1.5 in
10:32 4.2 °F 3.2 °F 1012.1 in South 12.9 mph 24.1 mph 93 % 1.5 in
10:37 4.2 °F 3.2 °F 1012.1 in South 12.9 mph 24.1 mph 93 % 1.5 in
10:42 4.3 °F 3.3 °F 1012.1 in SE 11.3 mph 24.1 mph 93 % 1.5 in
10:47 4.3 °F 3.3 °F 1012.1 in SW 16.1 mph 24.1 mph 93 % 1.5 in
10:52 4.4 °F 3.4 °F 1012.4 in SSW 12.9 mph 20.9 mph 93 % 1.3 in
11:02 4.5 °F 3.5 °F 1012.4 in SW 14.5 mph 24.1 mph 93 % 1.5 in
11:12 4.6 °F 3.7 °F 1012.1 in SSW 16.1 mph 24.1 mph 94 % 1.3 in
11:17 4.6 °F 3.7 °F 1012.1 in SSW 16.1 mph 24.1 mph 94 % 2.3 in
11:22 4.7 °F 3.8 °F 1012.1 in South 16.1 mph 22.5 mph 94 % 2.3 in
11:27 4.7 °F 3.8 °F 1012.1 in SW 12.9 mph 27.4 mph 94 % 2.3 in
11:32 4.7 °F 4.0 °F 1012.1 in SW 11.3 mph 27.4 mph 95 % 2.3 in
11:37 4.8 °F 4.1 °F 1012.1 in SW 9.7 mph 27.4 mph 95 % 2.3 in
11:42 4.8 °F 4.1 °F 1011.7 in SW 17.7 mph 24.1 mph 95 % 2.3 in
11:47 4.9 °F 4.3 °F 1011.7 in SW 14.5 mph 20.9 mph 96 % 2.3 in
11:52 5.0 °F 4.4 °F 1011.7 in SW 9.7 mph 19.3 mph 96 % 2.3 in
11:57 5.4 °F 5.0 °F 1011.7 in SSW 14.5 mph 19.3 mph 97 % 1.8 in
12:02 5.8 °F 5.4 °F 1011.7 in SSW 12.9 mph 20.9 mph 97 % 1.8 in
12:12 6.2 °F 5.5 °F 1011.4 in WSW 24.1 mph 27.4 mph 95 % 1.5 in
12:17 6.3 °F 5.6 °F 1011.7 in West 24.1 mph 35.4 mph 95 % 1.0 in
12:22 6.4 °F 5.5 °F 1011.4 in SW 24.1 mph 35.4 mph 94 % 0.8 in
12:27 6.4 °F 5.5 °F 1011.4 in SW 19.3 mph 35.4 mph 94 % 0.8 in
12:32 6.5 °F 5.6 °F 1011.4 in SW 17.7 mph 38.6 mph 94 % 0.5 in
12:37 6.6 °F 5.5 °F 1011.1 in SW 17.7 mph 38.6 mph 93 % 0.5 in
12:42 6.7 °F 5.6 °F 1011.1 in WSW 20.9 mph 46.7 mph 93 % 0.3 in
12:47 6.7 °F 5.6 °F 1011.1 in WSW 25.7 mph 46.7 mph 93 % 0.3 in
12:52 6.7 °F 5.5 °F 1011.1 in WSW 11.3 mph 46.7 mph 92 % 0.0 in
12:57 6.7 °F 5.6 °F 1011.1 in West 14.5 mph 46.7 mph 93 % 0.0 in
13:02 6.8 °F 5.6 °F 1011.1 in SW 20.9 mph 38.6 mph 92 % 0.0 in
13:12 6.9 °F 5.7 °F 1011.1 in WSW 14.5 mph 32.2 mph 92 % 0.0 in
13:17 6.9 °F 5.7 °F 1011.1 in SW 24.1 mph 30.6 mph 92 % 0.0 in
13:22 6.9 °F 5.7 °F 1010.7 in SW 22.5 mph 30.6 mph 92 % 0.0 in
13:27 6.9 °F 5.7 °F 1010.7 in WSW 24.1 mph 30.6 mph 92 % 0.0 in
13:32 7.0 °F 5.8 °F 1010.4 in SW 19.3 mph 30.6 mph 92 % 0.0 in
13:37 7.0 °F 5.8 °F 1010.4 in WSW 20.9 mph 27.4 mph 92 % 0.0 in
13:52 7.1 °F 5.9 °F 1010.0 in SW 12.9 mph 25.7 mph 92 % 0.0 in
13:57 7.2 °F 6.0 °F 1010.0 in SW 17.7 mph 32.2 mph 92 % 0.0 in
14:02 7.2 °F 6.0 °F 1010.0 in SSW 11.3 mph 32.2 mph 92 % 0.0 in
14:12 7.2 °F 6.0 °F 1010.0 in SW 19.3 mph 32.2 mph 92 % 0.0 in
14:17 7.2 °F 6.0 °F 1009.7 in SW 12.9 mph 30.6 mph 92 % 0.0 in
14:22 7.3 °F 6.1 °F 1009.7 in West 17.7 mph 30.6 mph 92 % 0.0 in
14:27 7.3 °F 6.1 °F 1009.7 in SW 12.9 mph 25.7 mph 92 % 0.0 in
14:32 7.3 °F 6.1 °F 1009.7 in SW 9.7 mph 25.7 mph 92 % 0.0 in
14:37 7.3 °F 6.1 °F 1009.7 in SW 16.1 mph 27.4 mph 92 % 0.0 in
14:42 7.3 °F 6.1 °F 1009.4 in SW 16.1 mph 27.4 mph 92 % 0.0 in
14:47 7.4 °F 6.2 °F 1009.4 in SW 14.5 mph 25.7 mph 92 % 0.0 in
14:57 7.4 °F 6.3 °F 1009.4 in SW 12.9 mph 24.1 mph 93 % 0.0 in
15:02 7.3 °F 6.2 °F 1009.4 in SW 11.3 mph 24.1 mph 93 % 0.0 in
15:07 7.3 °F 6.2 °F 1009.4 in SW 17.7 mph 22.5 mph 93 % 0.0 in
15:12 7.3 °F 6.4 °F 1009.4 in SW 12.9 mph 20.9 mph 94 % 0.0 in
15:17 7.3 °F 6.2 °F 1009.4 in SW 11.3 mph 22.5 mph 93 % 0.3 in
15:22 7.2 °F 6.1 °F 1009.0 in SW 17.7 mph 22.5 mph 93 % 0.3 in
15:32 7.2 °F 6.1 °F 1008.7 in SW 19.3 mph 25.7 mph 93 % 0.3 in
15:42 7.1 °F 6.0 °F 1008.7 in SSW 14.5 mph 25.7 mph 93 % 0.3 in
15:47 7.1 °F 6.2 °F 1008.7 in SSW 8.0 mph 22.5 mph 94 % 0.3 in
15:52 7.1 °F 6.0 °F 1008.4 in South 14.5 mph 19.3 mph 93 % 0.3 in
15:57 7.1 °F 6.0 °F 1008.4 in SSW 9.7 mph 20.9 mph 93 % 0.3 in
16:07 7.1 °F 6.0 °F 1008.4 in SSW 19.3 mph 24.1 mph 93 % 0.3 in
16:12 7.1 °F 5.9 °F 1008.4 in SW 17.7 mph 30.6 mph 92 % 0.3 in
16:17 7.1 °F 5.7 °F 1008.0 in SSW 16.1 mph 37.0 mph 91 % 0.0 in
16:22 6.9 °F 5.7 °F 1008.0 in SSW 17.7 mph 37.0 mph 92 % 0.0 in
16:32 6.8 °F 5.6 °F 1007.7 in SW 24.1 mph 35.4 mph 92 % 0.0 in
16:37 6.8 °F 5.6 °F 1007.7 in SSW 24.1 mph 35.4 mph 92 % 0.0 in
16:42 6.8 °F 5.6 °F 1007.3 in SW 19.3 mph 37.0 mph 92 % 0.0 in
16:47 6.8 °F 5.6 °F 1007.3 in SW 25.7 mph 37.0 mph 92 % 0.0 in
16:52 6.8 °F 5.7 °F 1007.0 in SW 27.4 mph 33.8 mph 93 % 0.0 in
16:57 6.8 °F 5.7 °F 1007.0 in South 20.9 mph 35.4 mph 93 % 0.0 in
17:02 6.8 °F 5.7 °F 1007.0 in SW 19.3 mph 35.4 mph 93 % 0.0 in
17:17 6.8 °F 5.9 °F 1006.7 in South 17.7 mph 35.4 mph 94 % 0.0 in
17:22 6.8 °F 5.9 °F 1006.7 in SSW 16.1 mph 33.8 mph 94 % 0.0 in
17:27 6.8 °F 5.9 °F 1006.3 in SSW 12.9 mph 33.8 mph 94 % 0.3 in
17:32 6.8 °F 5.9 °F 1006.3 in SSW 17.7 mph 33.8 mph 94 % 0.3 in
17:37 6.8 °F 5.9 °F 1006.0 in SW 22.5 mph 33.8 mph 94 % 0.3 in
17:42 6.9 °F 6.2 °F 1005.6 in South 17.7 mph 38.6 mph 95 % 0.5 in
17:52 6.9 °F 6.0 °F 1005.6 in SSW 22.5 mph 38.6 mph 94 % 0.5 in
17:57 7.0 °F 6.1 °F 1005.6 in SW 16.1 mph 35.4 mph 94 % 0.5 in
18:12 7.1 °F 6.4 °F 1005.3 in SW 22.5 mph 35.4 mph 95 % 0.8 in
18:22 7.1 °F 6.4 °F 1004.6 in SSW 24.1 mph 33.8 mph 95 % 0.8 in
18:32 7.1 °F 6.4 °F 1004.3 in SSE 17.7 mph 33.8 mph 95 % 0.8 in
18:37 7.1 °F 6.4 °F 1003.9 in SSW 16.1 mph 32.2 mph 95 % 1.0 in
18:42 6.9 °F 6.2 °F 1003.9 in SW 11.3 mph 30.6 mph 95 % 1.0 in
18:47 6.9 °F 6.2 °F 1003.6 in SSW 12.9 mph 29.0 mph 95 % 1.5 in
18:52 6.8 °F 6.2 °F 1003.6 in SSE 16.1 mph 22.5 mph 96 % 1.5 in
18:57 6.8 °F 6.2 °F 1003.6 in SSW 24.1 mph 24.1 mph 96 % 1.5 in
19:02 6.8 °F 6.2 °F 1003.3 in South 16.1 mph 33.8 mph 96 % 1.5 in
19:12 6.9 °F 6.3 °F 1003.3 in SW 19.3 mph 33.8 mph 96 % 1.5 in
19:17 6.9 °F 6.3 °F 1002.9 in SSW 19.3 mph 29.0 mph 96 % 1.5 in
19:22 6.9 °F 6.3 °F 1002.9 in SSW 14.5 mph 29.0 mph 96 % 1.3 in
19:27 7.0 °F 6.4 °F 1002.9 in SSW 20.9 mph 29.0 mph 96 % 1.3 in
19:32 7.2 °F 6.8 °F 1002.6 in SW 29.0 mph 32.2 mph 97 % 1.0 in
19:37 7.3 °F 6.9 °F 1002.6 in SW 25.7 mph 35.4 mph 97 % 0.8 in
19:42 7.5 °F 7.1 °F 1002.3 in SW 20.9 mph 37.0 mph 97 % 0.8 in
19:47 7.7 °F 7.3 °F 1002.3 in WSW 32.2 mph 40.2 mph 97 % 0.5 in
19:52 7.8 °F 7.4 °F 1002.3 in SW 24.1 mph 40.2 mph 97 % 0.5 in
19:57 8.1 °F 7.5 °F 1002.3 in WSW 14.5 mph 40.2 mph 96 % 0.5 in
20:02 8.2 °F 7.6 °F 1001.9 in WSW 11.3 mph 40.2 mph 96 % 0.5 in
20:07 8.3 °F 7.7 °F 1001.9 in SW 25.7 mph 40.2 mph 96 % 0.5 in
20:12 8.4 °F 7.8 °F 1001.9 in WSW 20.9 mph 40.2 mph 96 % 0.3 in
20:17 8.5 °F 7.9 °F 1001.6 in SW 30.6 mph 40.2 mph 96 % 0.3 in
20:22 8.6 °F 7.8 °F 1001.9 in West 14.5 mph 41.8 mph 95 % 0.3 in
20:27 8.7 °F 8.1 °F 1001.6 in SW 27.4 mph 41.8 mph 96 % 0.3 in
20:32 8.8 °F 8.2 °F 1001.6 in WSW 22.5 mph 48.3 mph 96 % 0.5 in
20:37 8.9 °F 8.3 °F 1001.6 in WSW 33.8 mph 48.3 mph 96 % 0.5 in
20:42 9.1 °F 8.5 °F 1001.6 in WSW 24.1 mph 48.3 mph 96 % 0.3 in
20:47 9.2 °F 8.6 °F 1001.2 in SW 24.1 mph 43.4 mph 96 % 0.3 in
20:52 9.3 °F 8.7 °F 1001.6 in WSW 24.1 mph 46.7 mph 96 % 0.5 in
20:57 9.5 °F 8.9 °F 1001.6 in WSW 27.4 mph 46.7 mph 96 % 0.5 in
21:02 9.6 °F 9.0 °F 1001.6 in SW 22.5 mph 46.7 mph 96 % 0.5 in
21:07 9.8 °F 9.2 °F 1001.6 in WSW 19.3 mph 51.5 mph 96 % 0.5 in
21:12 9.8 °F 9.2 °F 1001.6 in WSW 20.9 mph 51.5 mph 96 % 0.8 in
21:17 10.0 °F 9.4 °F 1001.6 in SW 30.6 mph 51.5 mph 96 % 0.8 in
21:22 10.2 °F 9.6 °F 1001.9 in WSW 17.7 mph 43.4 mph 96 % 1.0 in
21:32 10.4 °F 9.6 °F 1001.6 in West 20.9 mph 48.3 mph 95 % 1.0 in
21:37 10.6 °F 9.8 °F 1001.9 in WNW 24.1 mph 48.3 mph 95 % 1.3 in
21:42 10.8 °F 9.9 °F 1001.9 in WSW 17.7 mph 48.3 mph 94 % 1.3 in
21:47 11.0 °F 10.1 °F 1001.9 in West 14.5 mph 48.3 mph 94 % 1.3 in
21:57 11.2 °F 9.9 °F 1002.3 in WSW 43.4 mph 46.7 mph 92 % 1.0 in
22:02 11.3 °F 10.0 °F 1002.3 in West 25.7 mph 46.7 mph 92 % 0.8 in
22:07 11.3 °F 10.0 °F 1002.6 in WSW 20.9 mph 46.7 mph 92 % 0.8 in
22:12 11.3 °F 10.0 °F 1002.6 in WSW 16.1 mph 45.1 mph 92 % 0.5 in
22:17 11.2 °F 9.9 °F 1002.6 in West 14.5 mph 43.4 mph 92 % 0.5 in
22:27 11.1 °F 9.8 °F 1002.9 in West 9.7 mph 45.1 mph 92 % 0.5 in
22:32 11.1 °F 9.7 °F 1002.9 in West 29.0 mph 45.1 mph 91 % 0.3 in
22:42 11.2 °F 9.3 °F 1002.9 in West 16.1 mph 33.8 mph 88 % 0.5 in
22:47 11.1 °F 9.2 °F 1003.3 in West 24.1 mph 32.2 mph 88 % 0.5 in
22:52 10.9 °F 9.2 °F 1003.6 in WNW 19.3 mph 35.4 mph 89 % 0.5 in
23:02 10.4 °F 8.7 °F 1003.6 in WNW 30.6 mph 32.2 mph 89 % 0.5 in
23:07 10.3 °F 8.6 °F 1003.9 in NW 19.3 mph 33.8 mph 89 % 0.5 in
23:12 10.4 °F 8.3 °F 1003.6 in West 20.9 mph 45.1 mph 87 % 0.5 in
23:17 10.4 °F 8.2 °F 1003.6 in West 25.7 mph 45.1 mph 86 % 0.5 in
23:22 10.3 °F 8.1 °F 1003.9 in West 32.2 mph 45.1 mph 86 % 0.5 in
23:27 10.3 °F 8.1 °F 1003.9 in West 33.8 mph 43.4 mph 86 % 0.5 in
23:32 10.3 °F 8.2 °F 1003.9 in West 19.3 mph 41.8 mph 87 % 0.5 in
23:37 10.3 °F 8.4 °F 1003.9 in WSW 27.4 mph 37.0 mph 88 % 0.3 in
23:42 10.2 °F 8.5 °F 1003.9 in WSW 14.5 mph 35.4 mph 89 % 0.3 in
23:47 10.2 °F 8.5 °F 1003.9 in WSW 20.9 mph 33.8 mph 89 % 0.3 in
23:52 10.2 °F 8.3 °F 1003.9 in WSW 33.8 mph 40.2 mph 88 % 0.3 in
23:57 10.1 °F 8.2 °F 1004.3 in WSW 24.1 mph 41.8 mph 88 % 0.3 in
Meteo18
Compliments of Weather Underground - 4 mb

Script developed by  Jim McMurry - jmcmurry@mwt.net Adapted for the template by  Wim van der Kuil - Leuven-Template.eu

You find our weather info also at:

European Weather Network

Weather Underground

Equipment we use:

Weather-station
Davis Vue

Weather-program
Meteobridge

Weather-server
Raspberry PI 2 B+

Provider
1 and 1

Davis Vue

Meteobridge

Raspberry PI 2 B+

1 and 1